{"data":{"norad_id":62663,"intl_designator":"2025-009BG","name":"FLOCK 4G-5","alt_names":[],"object_type":"PAYLOAD","status":"ACTIVE","operator":null,"country":"US","launch_date":"2025-01-14","launch_site_code":"AFWTR","launch_vehicle":null,"mission":null,"orbit_class":"UNKNOWN","rcs_meters":null,"size_class":null,"mass_kg":null,"dimensions":null,"purposes":["earth_obs"],"wikipedia_slug":null,"has_3d_model":false,"image_url":null,"decayed_at":null,"tle_current":{"epoch":"2026-09-19T10:57:00.331776Z","epoch_age_seconds":104662,"freshness":"FRESH","line1":"1 62663U 25009BG  26262.45625384  .00005835  00000+0  19207-3 0  9996","line2":"2 62663  97.3972 344.6425 0002627 358.8165   1.3070 15.31884560 93366","mean_motion":15.3188456,"eccentricity":0.0002627,"inclination_deg":97.3972,"raan_deg":344.6425,"arg_perigee_deg":358.8165,"mean_anomaly_deg":1.307,"bstar":0.00019207,"rev_number":9336,"period_min":94.001861341301,"perigee_km":468.39083123298,"apogee_km":471.98894217925,"semimajor_km":6848.3268867061,"source":"CELESTRAK","updated_at":"2026-09-20T09:00:34.722415Z"}}}